This demonstration page uses our WeatherBlox Daily Observations layout. Learn more.

Left ArrowRight Arrow

Hourly Observations for January 14, 2017

Temp ( °F °C ) Dew Point ( °F °C ) Humidity (%) Winds ( mph kmh ) Pressure ( in mb ) Visibility ( mi km ) Precip ( " mm )
12:58 am 00:58 Cloudy 24 -4.5 6 -14.2 47 47 Calm 30.60 1036 10 16 0.00 0.00
1:58 am 01:58 Cloudy 24 -4.5 7 -13.8 49 49 Calm 30.60 1036 10 16 0.00 0.00
2:58 am 02:58 Cloudy 24 -4.6 8 -13.4 51 51 Calm 30.60 1036 10 16 0.00 0.00
3:58 am 03:58 Mostly Cloudy 21 -5.9 9 -12.8 59 59 Calm 30.59 1036 10 16 0.00 0.00
4:58 am 04:58 Cloudy 19 -7.4 12 -10.9 76 76 WNW 5 7 30.58 1036 10 16 0.00 0.00
5:58 am 05:58 Mostly Clear 21 -6.1 14 -9.9 75 75 Calm 30.57 1035 10 16 0.00 0.00
6:58 am 06:58 Mostly Cloudy 21 -6 14 -9.8 75 75 Calm 30.58 1036 10 16 0.00 0.00
7:58 am 07:58 Partly Cloudy 22 -5.5 15 -9.5 74 74 Calm 30.59 1036 10 16 0.00 0.00
8:58 am 08:58 Mostly Cloudy 22 -5.3 15 -9.2 74 74 Calm 30.60 1036 10 16 0.00 0.00
9:58 am 09:58 Cloudy 25 -4.1 13 -10.5 61 61 W 5 7 30.61 1037 10 16 0.00 0.00
10:58 am 10:58 Cloudy 28 -2.4 7 -13.7 42 42 WNW 6 9 30.61 1037 10 16 0.00 0.00
11:58 am 11:58 Cloudy 30 -1.1 6 -14.2 37 37 Calm 30.58 1036 10 16 0.00 0.00
12:58 pm 12:58 Mostly Sunny 33 0.8 5 -14.9 30 30 WSW 3 6 30.55 1035 10 16 0.00 0.00
1:58 pm 13:58 Sunny 34 1.3 6 -14.4 30 30 Calm 30.52 1034 10 16 0.00 0.00
2:58 pm 14:58 Sunny 36 2 7 -14 30 30 SW 5 7 30.51 1033 10 16 0.00 0.03
3:58 pm 15:58 Partly Cloudy 37 2.6 7 -13.7 29 29 ENE 3 6 30.51 1033 10 16 0.00 0.03
4:58 pm 16:58 Mostly Sunny 32 0 10 -12.1 40 40 Calm 30.50 1033 10 16 0.00 0.00
5:58 pm 17:58 Partly Cloudy 27 -2.9 15 -9.5 61 61 Calm 30.52 1034 10 16 0.00 0.00
6:58 pm 18:58 Cloudy 27 -2.9 18 -7.8 69 69 Calm 30.52 1034 10 16 0.00 0.00
7:58 pm 19:58 Cloudy 26 -3.4 19 -7 76 76 Calm 30.51 1033 10 16 0.00 0.00
8:58 pm 20:58 Cloudy 28 -2.3 22 -5.8 77 77 Calm 30.52 1033 10 16 0.00 0.00
9:58 pm 21:58 Cloudy 28 -2.4 22 -5.3 81 81 NNE 5 7 30.50 1033 10 16 0.00 0.00
10:58 pm 22:58 Cloudy 29 -1.7 19 -7.2 66 66 Calm 30.48 1032 10 16 0.00 0.00
11:58 pm 23:58 Cloudy 29 -1.8 21 -6 73 73 Calm 30.48 1032 10 16 0.00 0.00

Powered by AerisWeather